Retour au catalogue

KUIPER-00140

ActifCommunicationsLEO
NORAD 65965·PAYLOAD·🇺🇸 United States

Lancé Oct 14, 2025 depuis Cape Canaveral Space Force Station

Loading…

Prochains Passages (prochaines 24 heures)

TLE

FraisSource: CelesTrak SupGP

Époque: Sep 14, 2026, 19:48 UTC

1 65965C 25228U   26257.82546296  .00003297  00000+0  43161-3 0  2579
2 65965  51.8978 229.2981 0000962  62.7993 279.2916 14.79921795    18

Suivez KUIPER-00140 en temps réel avec AllMySat

Download on the App Store